RH
96 90 81 79 76 80 77 77 78 78 78 78 78 76 75 76 76 75 75 77 76 75 73 73 74 72 73 72 74 71 75 77 77 76 76 77 73 76 76 73 71 69 74
88 84 83 78 77 77 77 78 78 78 75 75 75 74 73 75 77 77 76 75 75 76 74 75 74 73 72 72 73 70 73 76 76 72 71 73 76 76 74 73 73 70 72
86 84 80 80 79 75 78 78 76 75 74 74 74 74 71 73 76 77 73 76 76 74 74 74 71 72 72 68 69 69 73 75 74 74 77 78 73 75 75 76 75 76 76
85 84 83 83 81 78 78 77 76 74 74 76 76 75 75 75 76 73 75 74 74 73 74 69 73 74 68 67 70 75 75 76 73 77 77 73 62 70 72 74 77 75 78
84 86 85 85 82 79 78 77 76 74 76 78 76 74 74 76 74 75 76 74 74 73 74 68 73 72 71 69 71 74 75 76 78 82 81 83 77 74 73 76 76 74 78
86 88 83 83 78 77 78 78 77 75 77 75 74 72 73 73 74 74 73 74 73 72 72 69 71 71 72 73 72 73 71 78 82 84 85 82 77 75 76 75 76 77 79
89 86 81 84 82 78 77 77 72 74 78 74 74 72 71 71 73 73 73 73 74 72 69 66 71 72 72 72 72 73 72 77 84 86 84 86 78 79 74 77 77 78 79
89 85 84 83 81 79 76 76 77 74 76 74 73 73 72 71 72 74 72 74 73 72 66 66 72 72 70 73 74 75 73 75 78 86 85 82 82 78 76 76 78 78 78
84 86 88 82 79 77 79 78 78 74 75 76 73 73 73 74 72 74 73 70 68 72 69 72 72 72 71 69 69 74 72 77 87 86 80 84 84 77 76 77 78 79 78
89 89 93 91 88 91 87 79 78 71 75 74 74 73 73 73 72 71 77 74 70 71 71 71 71 68 68 70 72 72 76 77 87 83 86 89 84 74 74 77 78 75 74
93 97 96 95 96 95 94 86 76 74 74 72 74 72 80 90 84 79 79 73 72 70 72 72 70 68 71 71 74 74 78 91 89 89 90 87 83 75 76 77 77 77 78
84 99 98 98 98 96 86 91 88 84 90 89 86 85 95 90 92 83 78 73 71 72 72 72 72 70 79 89 88 80 92 92 91 92 90 87 81 74 73 76 78 76 79
78 92 97 98 98 94 91 94 95 94 94 93 92 94 92 91 92 88 92 91 84 76 85 85 84 90 88 92 90 92 90 90 94 93 84 86 79 74 73 76 77 80 78
90 88 93 95 98 97 96 96 95 95 96 95 95 96 96 96 91 91 92 91 89 93 92 93 94 93 90 90 88 91 89 94 93 94 91 83 81 75 74 76 77 76 78
90 87 92 94 97 96 97 97 96 97 96 94 95 95 94 91 88 91 90 89 91 93 92 94 94 92 93 89 90 88 87 86 84 83 91 80 82 79 75 75 76 77 78
88 87 88 92 94 94 97 97 95 97 95 95 95 93 96 92 91 91 90 90 90 90 88 88 95 96 95 94 94 92 88 91 85 87 85 78 80 78 77 75 75 77 76
83 82 89 90 90 94 97 97 96 95 91 93 92 92 94 93 91 92 94 91 89 94 90 93 93 95 96 95 91 93 96 90 92 93 87 75 86 77 77 77 80 79 77
83 83 88 80 90 88 94 97 94 94 93 92 91 91 90 92 92 92 96 94 91 95 96 94 96 98 98 99 98 98 97 94 91 92 88 92 94 88 79 79 80 81 77
77 87 91 89 92 91 90 96 94 92 91 91 91 91 92 91 93 91 94 94 93 96 98 98 98 98 99 99 99 98 98 96 91 90 94 89 90 87 90 84 84 84 75
78 86 86 85 91 91 93 93 96 93 91 89 95 88 91 89 90 92 93 94 95 97 96 98 96 97 97 98 96 99 97 96 94 97 94 90 91 89 87 86 89 78 80
79 88 90 92 92 95 95 95 93 89 89 90 88 91 89 85 87 93 88 93 96 96 95 95 97 98 99 98 99 98 99 98 97 99 97 97 91 79 86 83 81 84 86
76 83 86 89 93 91 94 93 88 84 86 82 85 88 87 88 90 89 94 90 92 94 95 94 97 99 98 99 98 98 99 99 98 98 98 96 97 86 79 82 78 77 76
73 80 85 86 86 88 89 93 92 92 92 87 89 93 90 87 93 88 92 92 92 95 96 96 96 95 99 98 95 96 99 98 99 99 98 98 98 95 86 80 76 78 78
67 71 75 82 80 80 90 92 89 88 76 86 84 88 92 88 91 88 91 91 90 88 91 95 95 96 97 98 99 98 96 93 96 98 99 97 97 94 90 84 76 74 78
60 66 72 79 79 77 87 86 90 90 93 89 88 90 92 91 89 87 92 91 94 88 89 94 96 97 96 98 99 99 98 99 96 96 97 99 99 98 92 84 79 74 74
61 64 69 78 78 76 84 87 90 89 92 95 94 96 96 91 89 91 89 92 93 94 95 96 94 95 97 97 98 98 98 98 98 99 99 99 99 97 91 87 83 78 74
Wind_Speed
6 8 16 15 15 15 16 17 16 16 16 15 15 15 14 13 12 13 11 10 10 12 13 12 14 15 16 14 16 16 14 18 17 17 16 16 17 15 17 19 17 13 18
13 12 16 16 15 16 16 16 17 15 15 15 14 13 13 12 11 12 11 10 11 13 13 13 15 15 15 15 15 16 15 16 17 17 16 15 16 16 17 17 17 14 17
15 12 14 16 16 17 15 16 16 15 14 14 14 13 12 11 11 13 11 10 11 14 14 14 15 16 18 17 16 16 14 16 14 15 15 7 9 16 16 16 18 16 17
15 12 11 17 17 17 16 15 15 15 14 13 13 12 11 11 12 12 12 12 12 14 16 15 14 16 18 17 15 14 14 14 16 14 6 7 11 16 16 16 16 17 16
14 10 12 17 17 17 16 16 14 14 13 11 12 11 10 11 10 11 12 12 14 14 15 16 14 17 17 17 16 14 16 15 14 9 7 6 6 12 16 15 14 15 15
13 9 15 18 18 17 16 15 14 13 11 11 11 11 10 10 9 11 11 12 13 12 14 14 13 15 14 15 14 12 13 14 11 7 6 7 6 13 14 14 13 14 14
13 10 12 17 17 16 15 14 13 12 10 10 11 12 11 10 9 9 12 12 12 13 14 13 13 15 13 12 10 9 12 14 7 6 6 5 7 11 13 13 13 14 15
14 11 9 16 16 15 16 15 13 12 11 10 10 10 12 11 10 10 11 11 12 13 14 14 13 13 13 12 10 12 13 12 8 6 5 5 7 11 14 14 13 13 14
11 10 7 9 13 16 15 15 14 13 12 10 10 10 10 11 10 10 10 10 11 11 13 12 13 12 11 9 9 11 13 12 7 5 5 4 9 12 13 14 13 13 13
8 8 6 6 6 6 7 16 15 13 12 9 10 9 9 10 9 10 9 9 10 11 11 12 12 11 10 9 7 13 13 14 6 5 4 3 8 11 11 11 13 12 13
6 5 5 5 5 5 5 8 13 14 13 10 8 8 7 3 4 5 6 9 10 10 10 10 11 10 9 8 6 10 13 4 5 3 2 6 8 11 11 10 12 10 12
14 7 6 6 6 6 5 4 5 5 3 4 4 2 2 3 3 4 4 8 8 9 10 9 9 10 6 2 2 5 3 5 4 4 2 6 8 10 10 9 12 11 9
14 9 8 7 6 7 4 3 2 2 2 3 5 3 4 2 1 2 0 1 2 6 2 4 4 3 4 3 3 3 5 4 3 3 5 6 8 10 10 9 10 9 11
12 12 9 9 7 5 3 3 4 3 2 2 3 4 3 2 2 2 1 1 2 2 4 3 2 3 4 4 4 4 4 3 3 2 4 8 5 10 9 10 8 9 10
12 12 11 10 9 6 5 4 4 4 4 3 3 4 3 3 3 2 2 2 2 2 2 3 3 3 3 3 3 4 4 4 4 3 2 11 8 7 10 10 10 9 9
12 13 12 12 10 8 6 7 5 4 4 3 3 4 4 3 3 2 2 3 2 3 3 3 3 3 3 2 3 4 3 3 4 3 2 4 11 7 9 11 11 10 10
12 12 13 12 10 10 8 6 4 5 5 4 4 5 5 5 4 4 3 3 4 3 3 2 2 3 2 1 1 3 3 3 4 3 4 4 4 10 11 10 10 9 12
13 14 11 11 11 10 9 5 5 4 4 4 4 4 5 5 6 4 3 4 3 3 3 3 3 3 3 4 2 3 3 2 3 4 4 3 2 4 8 10 10 11 11
15 13 13 13 12 11 8 5 4 5 4 4 3 4 6 6 6 6 4 4 4 4 3 3 4 3 5 4 4 4 3 3 3 3 4 5 4 5 4 7 9 12 12
13 13 13 11 13 11 5 4 3 3 4 3 4 5 6 6 7 7 5 5 4 3 3 3 4 4 2 4 3 3 2 3 2 3 4 3 5 5 6 6 4 5 10
13 14 13 11 8 9 6 5 3 7 6 4 5 8 7 7 8 8 5 5 5 6 6 5 3 3 2 3 2 2 3 4 5 4 4 3 5 7 5 6 4 4 4
18 17 15 13 12 11 9 5 4 4 4 5 5 6 8 8 8 8 7 7 7 4 4 6 4 3 2 4 3 1 1 1 4 4 5 5 5 5 8 8 8 8 7
17 19 17 17 15 13 12 5 3 3 2 3 3 3 7 9 7 9 9 7 7 6 6 6 6 6 4 4 4 2 1 3 0 2 6 6 7 6 7 8 10 9 8
19 17 16 16 16 14 13 10 10 9 9 5 6 4 6 9 9 10 10 10 9 7 7 8 6 5 4 6 3 4 2 1 2 1 1 5 6 8 9 7 9 10 9
15 17 17 16 15 15 15 14 12 9 5 3 3 7 6 7 9 11 10 10 9 8 9 8 7 8 6 4 3 2 4 2 2 1 2 1 3 5 6 9 8 9 11
13 13 14 15 15 15 15 15 15 14 7 5 4 5 6 5 7 9 10 10 10 8 8 6 8 9 8 4 4 3 3 3 4 4 5 2 3 3 7 7 9 9 9
Wind_Direction
169 155 156 143 145 138 133 127 122 119 115 117 120 126 129 131 136 135 135 128 123 125 128 117 113 110 110 108 107 110 105 108 108 112 107 108 106 110 104 99 104 100 105
142 150 152 148 147 140 136 129 125 121 120 121 123 126 132 132 130 127 131 131 130 130 129 122 115 117 116 111 108 114 115 109 115 111 113 111 107 104 103 107 109 107 110
142 149 150 149 147 147 139 134 130 129 128 127 130 133 135 136 137 132 137 127 130 133 126 124 123 124 114 119 118 118 119 114 117 103 107 94 101 106 107 110 106 103 105
142 148 151 151 148 146 143 140 139 137 135 137 133 134 135 132 133 134 132 133 127 132 131 124 129 125 120 119 123 117 116 110 114 105 89 94 109 108 104 105 100 108 105
141 146 160 154 150 150 147 145 144 140 139 134 134 135 137 131 130 128 128 125 127 130 126 128 132 127 126 126 120 113 110 110 104 93 95 90 93 118 117 110 110 108 108
143 144 163 158 157 155 151 149 146 143 141 138 137 134 133 128 138 129 126 128 130 124 115 126 133 126 125 122 130 104 120 109 101 98 93 94 99 115 108 113 114 114 114
145 148 155 162 162 162 159 156 153 146 150 142 138 139 140 141 129 130 130 133 133 133 123 131 135 124 124 128 139 140 124 120 108 96 100 105 124 122 119 114 115 114 109
145 152 161 161 163 162 165 162 159 155 150 150 143 144 142 140 137 132 133 135 137 128 128 133 132 127 123 119 99 128 126 130 114 112 112 112 133 130 120 121 118 117 117
145 149 160 161 166 167 169 169 163 163 158 162 148 148 146 146 147 137 137 143 137 132 134 136 132 129 126 126 125 130 134 130 123 129 124 126 134 128 127 127 125 118 115
145 151 149 150 154 160 179 170 165 170 162 172 162 157 156 145 148 146 143 150 142 141 137 139 135 139 134 126 131 157 148 140 131 133 133 147 143 136 133 132 128 127 126
142 148 145 146 145 154 175 169 174 172 173 176 168 168 152 116 129 133 139 155 150 149 145 141 144 148 141 132 126 147 145 125 128 140 147 161 151 139 137 141 134 136 134
172 163 156 143 152 155 178 174 148 170 159 150 153 181 116 128 133 135 172 164 166 160 153 153 152 154 117 98 89 131 115 130 135 149 164 180 167 149 143 145 140 147 141
177 175 168 156 153 163 166 147 130 142 149 152 172 137 173 137 143 122 129 69 124 154 129 131 131 106 137 130 106 114 135 137 142 156 172 191 176 151 153 148 150 153 149
183 181 168 165 165 162 143 150 153 159 168 182 187 167 161 154 174 159 179 171 137 112 133 138 129 129 137 135 132 127 128 124 141 158 185 181 202 166 158 156 158 158 160
185 181 178 172 175 169 160 156 163 177 184 191 184 180 168 162 186 175 180 194 183 164 179 158 147 154 148 145 151 159 159 147 143 166 179 188 194 200 170 170 171 166 164
186 189 181 178 179 174 178 183 183 176 186 190 189 198 183 173 174 191 190 200 212 209 202 186 175 165 190 152 165 204 206 178 170 190 194 204 202 201 197 181 181 179 167
187 183 188 180 177 181 180 183 184 186 180 198 200 196 182 177 185 186 198 207 205 192 216 174 181 157 129 18 247 171 188 192 198 201 205 212 224 203 196 201 178 187 177
179 185 182 183 177 186 186 180 185 184 184 195 198 186 188 185 173 193 197 217 218 206 191 200 180 169 171 186 213 263 260 219 212 203 185 192 215 205 202 193 194 193 196
182 177 173 184 176 180 187 172 181 185 198 196 186 197 191 185 184 186 205 219 210 217 191 203 215 166 186 191 207 225 209 229 212 194 195 201 202 210 203 217 198 202 195
179 177 188 183 170 178 167 148 161 183 209 194 202 206 196 195 190 191 200 205 196 204 195 194 192 190 176 189 184 205 218 239 202 195 203 200 205 203 210 209 203 205 204
177 182 188 175 180 168 176 169 184 208 209 206 200 210 203 208 198 193 197 185 189 199 197 198 142 170 195 153 132 225 239 218 220 180 177 190 219 218 212 216 207 199 211
182 183 192 185 176 185 182 192 198 183 215 217 209 213 208 206 189 193 182 191 196 195 185 184 176 169 199 173 150 124 260 276 229 196 184 191 196 215 222 219 217 211 203
186 185 188 191 186 189 187 162 118 99 84 167 189 195 207 204 182 184 186 187 189 193 203 196 192 179 178 195 208 156 136 237 230 174 195 192 196 201 212 216 217 211 206
196 187 191 190 190 192 183 187 196 202 203 201 196 194 200 195 191 190 191 195 194 201 207 204 193 192 158 184 188 219 194 143 211 261 194 204 195 206 209 211 215 212 207
186 186 187 187 192 191 187 195 199 204 201 169 166 193 199 200 196 201 194 196 204 204 214 197 186 197 194 169 177 146 203 199 211 209 252 185 198 206 212 217 211 210 207
181 183 181 183 194 190 187 194 198 205 190 172 176 193 206 203 200 200 200 199 203 210 203 197 204 205 200 192 171 169 173 176 198 205 230 201 199 217 214 215 211 209 207